Date String (YYYY-MM-DD hh:mm:ss) UTC,Instrument flags,Ambient pressure (hPa),Sample flow (lpm),Bypass flow (lpm),Sample temperature (°C),Ambient temperature (°C),ASC tube jacket temperature (°C),LED temperature (°C),Box temperature (°C),Sample RH (%),Span deviation,Mass concentration (μg/m³),Mass concentration (μg/m³),Mass concentration (μg/m³)
DateTimeUTC,F1_M11,P_M11,Q1_M11,Q2_M11,T1_M11,T2_M11,T3_M11,T4_M11,T5_M11,U1_M11,ZSPAN_M11,X0_M11,X2_M11,X1_M11
2022-03-30 23:00:00,,0816.4,5.01,0.00,23.7,22.8,00.0,32.7,25.5,06.7,0000.0,0009.90,0002.62,0001.21
2022-03-30 23:01:00,,0816.4,5.00,0.00,23.7,22.8,00.0,32.7,25.5,06.8,0000.0,0009.48,0002.59,0001.19
2022-03-30 23:02:00,,0816.5,5.00,0.00,23.7,22.8,00.0,32.7,25.5,06.9,0000.0,0008.51,0002.45,0001.17
2022-03-30 23:03:00,,0816.4,4.99,0.00,23.7,22.9,00.0,32.7,25.5,06.8,0000.0,0008.40,0002.41,0001.18
2022-03-30 23:04:00,,0816.4,5.00,0.00,23.7,22.9,00.0,32.7,25.5,06.9,0000.0,0008.29,0002.36,0001.18
2022-03-30 23:05:00,,0816.4,4.99,0.00,23.7,22.8,00.0,32.7,25.4,06.8,0000.0,0008.26,0002.35,0001.19
2022-03-30 23:06:00,,0816.4,5.00,0.00,23.7,22.8,00.0,32.7,25.5,07.0,0000.0,0008.31,0002.36,0001.19
2022-03-30 23:07:00,,0816.4,5.00,0.00,23.7,22.8,00.0,32.7,25.5,07.0,0000.0,0009.08,0002.34,0001.19
2022-03-30 23:08:00,,0816.4,5.01,0.00,23.7,22.8,00.0,32.7,25.5,06.9,0000.0,0009.10,0002.33,0001.18
2022-03-30 23:09:00,,0816.4,5.00,0.00,23.7,22.8,00.0,32.7,25.5,06.9,0000.0,0007.83,0002.17,0001.16
2022-03-30 23:10:00,,0816.5,4.99,0.00,23.7,22.8,00.0,32.7,25.5,07.1,0000.0,0006.12,0002.01,0001.14
2022-03-30 23:11:00,,0816.4,5.01,0.00,23.7,22.8,00.0,32.7,25.5,07.1,0000.0,0005.82,0002.06,0001.13
2022-03-30 23:12:00,,0816.5,5.01,0.00,23.7,22.8,00.0,32.7,25.5,07.0,0000.0,0005.75,0002.02,0001.13
2022-03-30 23:13:00,,0816.4,5.00,0.00,23.7,22.8,00.0,32.7,25.5,07.1,0000.0,0006.17,0001.97,0001.13
2022-03-30 23:14:00,,0816.4,5.00,0.00,23.7,22.8,00.0,32.7,25.5,07.3,0000.0,0006.35,0002.04,0001.12
2022-03-30 23:15:00,,0816.4,5.00,0.00,23.7,22.9,00.0,32.7,25.5,07.3,0000.0,0006.31,0002.03,0001.11
2022-03-30 23:16:00,,0816.5,5.00,0.00,23.7,22.9,00.0,32.7,25.5,07.3,0000.0,0006.41,0002.04,0001.11
2022-03-30 23:17:00,,0816.6,5.00,0.00,23.6,22.9,00.0,32.7,25.5,07.1,0000.0,0006.22,0002.00,0001.09
2022-03-30 23:18:00,,0816.4,5.01,0.00,23.6,22.8,00.0,32.7,25.5,07.2,0000.0,0004.92,0001.99,0001.09
2022-03-30 23:19:00,,0816.4,5.01,0.00,23.7,22.9,00.0,32.7,25.5,07.3,0000.0,0004.52,0001.97,0001.07
2022-03-30 23:20:00,,0816.4,4.99,0.00,23.7,22.9,00.0,32.7,25.5,07.3,0000.0,0004.66,0001.99,0001.07
2022-03-30 23:21:00,,0816.4,4.99,0.00,23.7,22.9,00.0,32.7,25.5,07.3,0000.0,0004.46,0001.92,0001.05
2022-03-30 23:22:00,,0816.5,4.98,0.00,23.7,22.9,00.0,32.7,25.5,07.3,0000.0,0004.13,0001.86,0001.04
2022-03-30 23:23:00,,0816.5,5.00,0.00,23.7,22.9,00.0,32.7,25.5,07.3,0000.0,0004.24,0001.92,0001.04
2022-03-30 23:24:00,,0816.4,5.00,0.00,23.7,22.9,00.0,32.7,25.5,07.3,0000.0,0003.64,0001.94,0001.05
2022-03-30 23:25:00,,0816.5,5.01,0.00,23.7,22.9,00.0,32.7,25.5,07.3,0000.0,0003.47,0001.88,0001.05
2022-03-30 23:26:00,,0816.4,5.00,0.00,23.7,22.9,00.0,32.7,25.5,07.3,0000.0,0003.54,0001.87,0001.05
2022-03-30 23:27:00,,0816.5,4.99,0.00,23.7,22.9,00.0,32.7,25.5,07.2,0000.0,0003.58,0001.83,0001.04
2022-03-30 23:28:00,,0816.5,5.00,0.00,23.7,22.9,00.0,32.7,25.6,07.3,0000.0,0003.85,0001.85,0001.04
2022-03-30 23:29:00,,0816.4,4.99,0.00,23.7,22.9,00.0,32.7,25.6,07.4,0000.0,0003.82,0001.84,0001.04
2022-03-30 23:30:00,,0816.5,5.00,0.00,23.7,23.0,00.0,32.7,25.6,07.5,0000.0,0003.97,0001.91,0001.05
2022-03-30 23:31:00,,0816.5,5.01,0.00,23.8,23.0,00.0,32.7,25.6,07.4,0000.0,0003.89,0001.93,0001.06
2022-03-30 23:32:00,,0816.5,5.00,0.00,23.8,23.0,00.0,32.7,25.6,07.5,0000.0,0004.01,0001.96,0001.06
2022-03-30 23:33:00,,0816.6,5.00,0.00,23.8,23.0,00.0,32.7,25.6,07.7,0000.0,0003.95,0001.95,0001.07
2022-03-30 23:34:00,,0816.6,5.01,0.00,23.8,23.1,00.0,32.7,25.6,07.4,0000.0,0003.94,0001.94,0001.08
2022-03-30 23:35:00,,0816.5,5.00,0.00,23.8,23.1,00.0,32.7,25.6,07.6,0000.0,0004.04,0001.97,0001.08
2022-03-30 23:36:00,,0816.5,5.00,0.00,23.8,23.1,00.0,32.7,25.6,07.8,0000.0,0004.29,0002.02,0001.08
2022-03-30 23:37:00,,0816.5,5.00,0.00,23.8,23.1,00.0,32.7,25.6,07.9,0000.0,0004.46,0002.06,0001.07
2022-03-30 23:38:00,,0816.4,5.01,0.00,23.8,23.1,00.0,32.7,25.7,08.0,0000.0,0004.52,0002.13,0001.07
2022-03-30 23:39:00,,0816.5,5.00,0.00,23.8,23.1,00.0,32.7,25.7,07.8,0000.0,0004.34,0002.16,0001.06
2022-03-30 23:40:00,,0816.5,5.00,0.00,23.8,23.1,00.0,32.7,25.7,07.8,0000.0,0004.43,0002.20,0001.07
2022-03-30 23:41:00,,0816.6,5.00,0.00,23.9,23.1,00.0,32.8,25.7,08.1,0000.0,0004.34,0002.14,0001.06
2022-03-30 23:42:00,,0816.6,5.01,0.00,23.9,23.1,00.0,32.8,25.7,08.1,0000.0,0004.23,0002.09,0001.05
2022-03-30 23:43:00,,0816.6,5.00,0.00,23.9,23.1,00.0,32.8,25.7,08.1,0000.0,0004.19,0002.07,0001.05
2022-03-30 23:44:00,,0816.5,5.00,0.00,23.9,23.1,00.0,32.8,25.7,08.2,0000.0,0004.12,0002.04,0001.04
2022-03-30 23:45:00,,0816.5,5.00,0.00,23.9,23.1,00.0,32.8,25.7,08.1,0000.0,0004.08,0002.03,0001.03
2022-03-30 23:46:00,,0816.5,5.00,0.00,23.9,23.1,00.0,32.8,25.7,07.9,0000.0,0003.99,0001.98,0001.02
2022-03-30 23:47:00,,0816.5,5.00,0.00,23.9,23.1,00.0,32.8,25.7,07.8,0000.0,0003.84,0001.93,0001.02
2022-03-30 23:48:00,,0816.5,5.00,0.00,23.9,23.1,00.0,32.8,25.7,07.8,0000.0,0003.56,0001.87,0001.02
2022-03-30 23:49:00,,0816.4,5.00,0.00,23.9,23.1,00.0,32.8,25.8,07.9,0000.0,0003.33,0001.79,0001.02
2022-03-30 23:50:00,,0816.4,4.98,0.00,23.9,23.1,00.0,32.8,25.8,07.7,0000.0,0003.26,0001.75,0001.02
2022-03-30 23:51:00,,0816.4,5.02,0.00,23.9,23.1,00.0,32.8,25.8,07.6,0000.0,0003.22,0001.72,0001.02
2022-03-30 23:52:00,,0816.4,4.99,0.00,23.9,23.1,00.0,32.8,25.8,07.8,0000.0,0003.24,0001.74,0001.01
2022-03-30 23:53:00,,0816.4,5.00,0.00,23.9,23.2,00.0,32.8,25.9,08.1,0000.0,0003.30,0001.77,0001.01
2022-03-30 23:54:00,,0816.4,4.99,0.00,23.9,23.2,00.0,32.8,25.8,07.6,0000.0,0003.41,0001.79,0001.02
2022-03-30 23:55:00,,0816.5,5.00,0.00,23.9,23.1,00.0,32.8,25.8,07.6,0000.0,0004.52,0001.82,0001.02
2022-03-30 23:56:00,,0816.4,5.00,0.00,23.9,23.1,00.0,32.8,25.7,07.7,0000.0,0004.81,0001.84,0001.02
2022-03-30 23:57:00,,0816.5,5.01,0.00,23.9,23.1,00.0,32.8,25.7,07.7,0000.0,0005.03,0001.88,0001.02
2022-03-30 23:58:00,,0816.7,5.00,0.00,23.9,23.1,00.0,32.9,25.7,07.8,0000.0,0004.96,0001.88,0001.02
2022-03-30 23:59:00,,0816.6,5.01,0.00,23.9,23.1,00.0,32.9,25.8,08.0,0000.0,0004.97,0001.87,0001.02
